ATLAS 5 CENTAUR DEB, 44893

Orbit data source: Space-Track

ATLAS 5 CENTAUR DEB, 44893 is space debris in HEO originally from a launch on Wed, 17 Sep 2014 UTC launched from the Air Force Eastern Test Range (AFETR). Debris objects in space refer to the collection of defunct objects orbiting the Earth. Examples of debris include non-operational satellites, rocket bodies, and fragments generated from explosions, collisions, or faulty payload assembly.

Loading next visibility...
Identifier
44893, 2014-055CJ
Orbit
HEO
Country
Flag of USUS
Related business
Flag of USUnited Launch Alliance/Lockheed Martin (US)
Manufacturer
Unknown
Mission
Spacecraft
Bus & Motor
Unknown
Mass
Unknown
Launch date (UTC)
2014-09-17 (11 years ago)
Launch vehicle
Unknown
Launch site
Air Force Eastern Test Range (AFETR)
Object type
Payload
Rocket body
Debris
Shape & HBR
Unknown shape, 1.1 m
Radar Cross Section
Small (<0.1 m²)

Expand to show TLE details & history
Last TLE update: 22 hours ago

TLE from 22 hours ago
0 ATLAS 5 CENTAUR DEB
1 44893U 14055CJ  26072.67338013 -.00000099  00000-0  00000-0 0  9990
2 44893  20.3734 138.6949 4841952 175.0333 192.4615  1.88239713 43450
Epoch: 2026-03-13T16:09Z
TLE epoch observation values (Epoch: 2026-03-13T16:09:40.043Z)
Latitude
0.00006°
Longitude
84.99441°
Altitude
34,608.992 km
Speed
2.25 km/s
True Right ascension
09h 14m 52s
True Declination
0° 00' 00"
Sunlit
Object was in daylight at epoch
Visualization orbit readout
Latitude
Unknown
Longitude
Unknown
Altitude
Unknown
Speed
Unknown
Apparent Right ascension
Unknown
Apparent Declination
Unknown
Sunlit
N/A
Visualization observer readout
Local Sidereal Time
18:39:50
Azimuth
Unknown
Elevation
Unknown
Doppler factor
Unknown
Orbital elements
Apogee altitude
34,747.824 km
Perigee altitude
7,914.436 km
Semi-major axis
27,709.267 km
Eccentricity
0.4842
Inclination
20.3734°
RAAN
138.6949°
Arg. of periapsis
175.0333°
True anomaly
184.96127°
Mean anomaly
192.4615°
Eccentric anomaly
188.40596°
Mean motion
0.47055 °/min
Orbital period
765.06 mins
BSTAR
0
Loading maneuver chart data...
Computing Atmospheric mass density...

Documentation

Showing up to 5 results
|